Location: Ellingshausen
(50.5460°N, 10.4723°E)
Time: 12:42:02
(UTC+00:00)

Cosmos 676 Rocket - Pass Details

Date: 10 April 2026
Orbit: 750 x 779 km, 74.0° (Epoch: 19 May)

Event Time Altitude Azimuth Distance (km) Brightness Sun altitude
Rises 23:43:52 0° 338° (NNW) 3,273 8.1 -31.0°
Reaches altitude 10° 23:46:21 10° 343° (NNW) 2,339 7.2 -30.9°
Enters shadow 23:51:11 50° 46° (NE) 990 4.7 -30.8°
